Weather in Ust-Turka

Russia / Perm Krai     57°12′58″N   56°35′40″E
temp.,
°C
wind,
m/s
gust,
m/s
humid.,
%
clouds,
%
prec.,
mm/h
press.,
hPa
HPBL,
m
4 march, thu
thu423:00−6wsw349686 0.9 99873
02:00−7wnw3793100 0.0 997197
05:00−11w469485 0.1 997123
08:00−12wsw489435 0.0 997145
11:00−8wsw489037 0.0 998418
14:00−4sw5988100 0.1 997761
17:00−5ssw61090100 0.1 995635
20:00−5s61392100 0.1 993730
5 march, fri
fri523:00−5s81594100 1.4 989925
02:00−4wsw61485100 0.9 986870
05:00−5wsw8159293 1.5 989906
08:00−8wsw8168883 0.3 992595
11:00−8wsw7128876 0.4 995648
14:00−7wsw698897 0.0 998705
17:00−7w6108898 0.1 1000668
20:00−13w469082 0.0 1003100
6 march, sat
sat623:00−14w499141 0.0 1006153
02:00−15wsw369512 0.0 1007104
05:00−16sw369522 0.0 100898
08:00−15wsw499474 0.0 1008228
11:00−12w588785 0.1 1009715
14:00−11w5883100 0.0 1010796
17:00−12w468494 0.1 1010712
20:00−17w339463 0.0 101121
7 march, sun
sun723:00−20w229831 0.0 101220
02:00−22wsw121000 0.0 101120
05:00−23wsw12990 0.0 101120
08:00−23w22980 0.0 101020
11:00−17wnw23891 0.0 1010265
14:00−13w238089 0.0 1010712
17:00−13w338494 0.1 1010664
20:00−19wsw2295100 0.0 101020
8 march, mon
mon823:00−20ssw339991 0.0 101133
02:00−23s349920 0.0 100946
05:00−21sse499955 0.0 1008233
08:00−18sse51096100 0.1 1005396
11:00−13s61093100 0.8 1002602
14:00−10s61192100 0.5 1001782
17:00−6wsw81182100 1.0 10011098
20:00−10ssw4119349 0.0 1003300